This is the latest recevied weather packets stored in our database for station/object KI5RAB. If no packets are shown the sender has not sent any weather packets the latest 10 day(s).
| Time | Temp. | Humidity | Pressure | Rain* | Wind** | Luminosity | Snow |
|---|---|---|---|---|---|---|---|
| 1788289989 | 35.56° C | 44% | 1018.3 hPa | 0 mm | - | 693 W/m² | - |
| 1788289686 | 36.11° C | 42% | 1018.2 hPa | 0 mm | - | 691 W/m² | - |
| 1788289380 | 36.11° C | 43% | 1018.3 hPa | 0 mm | - | 701 W/m² | - |
| 1788289078 | 35.56° C | 43% | 1018.5 hPa | 0 mm | - | 704 W/m² | - |
| 1788288777 | 36.11° C | 43% | 1018.6 hPa | 0 mm | - | 710 W/m² | - |
| 1788288473 | 35.56° C | 44% | 1018.7 hPa | 0 mm | - | 708 W/m² | - |
| 1788288168 | 35.56° C | 43% | 1018.7 hPa | 0 mm | - | 703 W/m² | - |
| 1788287864 | 35.56° C | 45% | 1018.9 hPa | 0 mm | - | 711 W/m² | - |
| 1788287563 | 35.56° C | 46% | 1019.1 hPa | 0 mm | - | 714 W/m² | - |
| 1788287259 | 36.67° C | 46% | 1019 hPa | 0 mm | - | 713 W/m² | - |
| 1788286958 | 35.56° C | 46% | 1019.1 hPa | 0 mm | - | 712 W/m² | - |
| 1788286653 | 35.56° C | 47% | 1019.3 hPa | 0 mm | - | 702 W/m² | - |
| 1788286348 | 34.44° C | 49% | 1019.3 hPa | 0 mm | - | 707 W/m² | - |
| 1788286046 | 34.44° C | 47% | 1019.6 hPa | 0 mm | - | 713 W/m² | - |
| 1788285746 | 35° C | 48% | 1019.6 hPa | 0 mm | - | 711 W/m² | - |
| 1788285445 | 34.44° C | 48% | 1019.6 hPa | 0 mm | - | 712 W/m² | - |
| 1788285140 | 34.44° C | 47% | 1019.7 hPa | 0 mm | - | 709 W/m² | - |
| 1788284835 | 34.44° C | 47% | 1019.8 hPa | 0 mm | - | 706 W/m² | - |
| 1788284531 | 33.89° C | 48% | 1019.8 hPa | 0 mm | - | 702 W/m² | - |
| 1788284226 | 35° C | 47% | 1019.8 hPa | 0 mm | - | 697 W/m² | - |
| 1788283921 | 34.44° C | 48% | 1019.8 hPa | 0 mm | - | 690 W/m² | - |
| 1788283618 | 34.44° C | 50% | 1019.9 hPa | 0 mm | - | 685 W/m² | - |
| 1788283316 | 33.33° C | 50% | 1020.2 hPa | 0 mm | - | 679 W/m² | - |
| 1788283010 | 33.33° C | 50% | 1020.1 hPa | 0 mm | - | 676 W/m² | - |
| 1788282708 | 33.89° C | 50% | 1020.2 hPa | 0 mm | - | 666 W/m² | - |
* Rain latest hour (hover to see other rain measurements)
** Current wind speed in m/s (hover to see current wind gust speed)